sat.trackr.live / text

‹ back to catalog

KUIPER-00592

NORAD 69277 · 2026-118L

PAYLOAD ACTIVE UNKNOWN

§ Identity

Operator
Country
US
Launch date
2026-05-29
Launch site
AFETR
Launch vehicle
Mass (kg)
RCS (m²)

External: N2YO · Heavens-Above · Gunter

§ Orbital elements

Epoch: 2026-09-19T17:32:51.218304Z

Period
97.30 min
Inclination
51.9026°
Eccentricity
0.0000550
Mean motion
14.79985868 rev/d
Perigee alt
629.0 km
Apogee alt
629.8 km
Semi-major
7,007.5 km
B*
7.9983e-4
RAAN
342.4829°
Arg perigee
122.4181°
Mean anomaly
237.6835°
Rev number
1,816

§ Raw data

KUIPER-005921 69277U 26118L   26262.73114836  .00005889  00000+0  79983-3 0  99982 69277  51.9026 342.4829 0000550 122.4181 237.6835 14.79985868 18162

JSON: /api/v1/satellites/69277 · /tle

For live sub-satellite position, see the globe view (requires WebGL).

§ Visibility from observer

Set your observer location to see the next 7 days of passes ≥ 10°. The values pass through the URL so the page stays shareable.

No JS? Fill the form by hand. The geolocation button needs JavaScript.